Location: Barrialote
(9.9333°N, 67.3500°W)
Time: 22:54:55
(UTC+00:00)

STARLINK-31753 - Pass Details

Date: 18 April 2024
Orbit: 443 x 445 km, 43.0° (Epoch: 24 May)

Event Time Altitude Azimuth Distance (km) Brightness Sun altitude
Rises 22:53:02 0° 324° (NW) 2,460 7.8 -4.0°
Reaches altitude 10° 22:55:16 10° 331° (NNW) 1,591 6.6 -4.5°
Maximum altitude 22:58:42 42° 43° (NE) 664 3.8 -5.3°
Drops below altitude 10° 23:02:11 10° 116° (ESE) 1,601 5.4 -6.2°
Enters shadow 23:02:48 - 118° (ESE) 1,842 5.7 -6.3°
